Weather reports worldwide

Advertisment
Andernach, Germany (10520): temperature & dewpoint: 19.08.2019 08:00:00 - 25.08.2019 08:00:00 (CEST)Andernach, Germany (10520): temperature 5cm & temperature -5cm: 19.08.2019 08:00:00 - 25.08.2019 08:00:00 (CEST)Andernach, Germany (10520): temperature -20cm & temperature -100cm: 19.08.2019 08:00:00 - 25.08.2019 08:00:00 (CEST)Andernach, Germany (10520): wind speed & gusts: 19.08.2019 08:00:00 - 25.08.2019 08:00:00 (CEST)Andernach, Germany (10520): wind direction: 19.08.2019 08:00:00 - 25.08.2019 08:00:00 (CEST)Andernach, Germany (10520): reduced air pressure: 19.08.2019 08:00:00 - 25.08.2019 08:00:00 (CEST)Andernach, Germany (10520): visibility: 19.08.2019 08:00:00 - 25.08.2019 08:00:00 (CEST)Andernach, Germany (10520): sunshine duration: 19.08.2019 08:00:00 - 25.08.2019 08:00:00 (CEST)Andernach, Germany (10520): precipitation: 19.08.2019 08:00:00 - 25.08.2019 08:00:00 (CEST)
Date & Time tt [°C] td [°C] tt 5cm [°C] tt -5cm [°C] tt -20cm [°C] tt -100cm [°C] ff [km/h] ff [kn] fx [km/h] fx [kn] dd ppp [hPa] vv [km] sd [min] rr [mm]
25.08.2019 08:00:00 15,6 12,4 15,6 17,4 21,6 19,4 2 1 5 3 S 1019,4 31 16 0,0
25.08.2019 07:00:00 14,0 11,9 12,8 17,3 21,9 19,4 5 3 8 4 SSW 1019,3 26 0 0,0
25.08.2019 06:00:00 14,1 12,0 12,1 17,7 22,4 19,4 5 3 7 4 SW 1019,0 27 0 0,0
25.08.2019 05:00:00 14,8 12,2 12,8 18,4 22,8 19,4 5 3 7 4 SSW 1018,8 26 0 0,0
25.08.2019 04:00:00 15,3 12,4 13,7 19,0 23,2 19,4 5 3 7 4 SSW 1018,9 28 0 0,0
25.08.2019 03:00:00 15,8 12,7 13,6 19,7 23,7 19,4 5 3 8 4 SSW 1018,9 33 0 0,0
25.08.2019 02:00:00 16,3 13,0 14,5 20,4 24,2 19,4 6 3 9 5 SSW 1018,9 32 0 0,0
25.08.2019 01:00:00 16,9 13,2 14,6 21,4 24,8 19,4 5 3 7 4 S 1019,0 34 0 0,0
25.08.2019 00:00:00 18,1 13,3 15,7 22,6 25,3 19,4 6 4 8 5 SSW 1018,9 37 0 0,0
24.08.2019 23:00:00 18,5 14,5 14,8 24,0 25,9 19,4 3 1 9 5 WSW 1018,7 31 0 0,0
24.08.2019 22:00:00 21,1 14,4 16,1 25,9 26,3 19,4 5 3 8 4 SSW 1018,7 37 0 0,0
24.08.2019 21:00:00 23,8 13,5 17,8 28,6 26,6 19,4 4 2 10 5 N 1018,3 32 22 0,0
24.08.2019 20:00:00 27,6 12,5 27,1 31,8 26,5 19,4 6 3 15 8 ENE 1018,1 37 60 0,0
24.08.2019 19:00:00 28,9 9,9 30,6 34,3 26,2 19,4 8 4 21 11 ENE 1018,2 49 59 0,0
24.08.2019 18:00:00 29,4 8,7 32,1 36,1 25,6 19,4 13 7 22 12 ESE 1018,5 55 60 0,0
24.08.2019 17:00:00 29,5 9,1 34,0 37,1 24,7 19,4 10 5 22 12 ESE 1018,8 75 60 0,0
24.08.2019 16:00:00 29,1 9,8 32,9 37,2 23,6 19,4 9 5 22 12 ESE 1019,2 55 60 0,0
24.08.2019 15:00:00 28,7 11,2 33,8 36,2 22,5 19,3 6 3 21 11 ESE 1019,6 40 60 0,0
24.08.2019 14:00:00 27,7 12,0 31,7 34,1 21,3 19,3 10 5 15 8 SSE 1020,1 58 60 0,0
24.08.2019 13:00:00 27,4 12,1 32,6 30,9 20,4 19,3 5 3 12 7 SE 1020,6 55 60 0,0
24.08.2019 12:00:00 24,8 11,2 28,5 26,9 19,8 19,3 3 2 7 4 NNW 1021,4 46 60 0,0
24.08.2019 11:00:00 21,2 10,3 24,6 22,7 19,5 19,3 3 2 6 3 NNW 1022,2 45 60 0,0
24.08.2019 10:00:00 18,3 11,2 19,8 19,0 19,5 19,3 2 1 5 3 WSW 1022,5 31 60 0,0
24.08.2019 09:00:00 16,1 10,4 16,4 16,2 19,7 19,3 3 2 5 3 SSE 1022,7 32 60 0,0
24.08.2019 08:00:00 13,2 9,8 11,2 14,5 20,1 19,4 2 1 4 2 S 1023,0 24 58 0,0
24.08.2019 07:00:00 10,4 9,0 7,7 14,4 20,5 19,4 3 1 8 4 SSW 1022,9 22 0 0,0
24.08.2019 06:00:00 10,6 9,1 7,4 15,0 21,0 19,4 3 1 7 4 S 1022,4 25 0 0,0
24.08.2019 05:00:00 11,5 9,5 9,6 15,7 21,5 19,4 6 3 8 4 SSW 1022,4 29 0 0,0
24.08.2019 04:00:00 11,6 9,7 8,1 16,4 22,0 19,3 4 2 9 5 SSW 1022,3 30 0 0,0
24.08.2019 03:00:00 12,1 10,5 8,4 17,2 22,6 19,4 3 2 7 4 S 1022,4 29 0 0,0
24.08.2019 02:00:00 12,9 10,7 9,6 18,4 23,1 19,3 4 2 8 5 SSW 1022,4 30 0 0,0
24.08.2019 01:00:00 14,7 10,8 12,2 19,5 23,7 19,3 6 4 9 5 SSW 1022,5 37 0 0,0
24.08.2019 00:00:00 16,3 11,1 13,4 20,7 24,3 19,3 4 2 9 5 SW 1022,5 39 0 0,0
23.08.2019 23:00:00 16,9 12,1 12,1 22,2 24,8 19,3 2 1 6 3 WNW 1022,6 39 0 0,0
23.08.2019 22:00:00 18,9 12,4 13,7 24,3 25,3 19,3 4 2 7 4 SSW 1022,5 42 0 0,0
23.08.2019 21:00:00 22,6 10,9 16,0 27,1 25,6 19,3 5 3 8 4 N 1022,3 36 17 0,0
23.08.2019 20:00:00 26,5 9,5 24,4 30,4 25,5 19,3 5 3 15 8 E 1022,0 36 60 0,0
23.08.2019 19:00:00 27,9 7,3 29,3 33,1 25,2 19,3 10 5 19 10 E 1022,0 42 60 0,0
23.08.2019 18:00:00 28,5 8,1 32,3 34,9 24,6 19,3 11 6 22 12 E 1022,4 64 60 0,0
23.08.2019 17:00:00 28,5 7,6 32,3 36,0 23,7 19,3 11 6 21 11 NE 1022,7 62 60 0,0
23.08.2019 16:00:00 28,2 7,6 33,7 36,0 22,6 19,3 8 4 21 11 ENE 1023,1 60 60 0,0
23.08.2019 15:00:00 28,1 9,2 34,0 34,9 21,5 19,3 6 4 20 11 ENE 1023,6 62 60 0,0
23.08.2019 14:00:00 26,8 9,3 32,7 32,7 20,4 19,3 8 4 16 9 ENE 1024,3 47 60 0,0
23.08.2019 13:00:00 25,8 10,0 31,3 29,6 19,5 19,3 5 3 12 6 NE 1024,9 72 60 0,0
23.08.2019 12:00:00 23,9 12,3 27,9 25,6 18,9 19,3 3 1 6 4 WSW 1025,7 26 60 0,0
23.08.2019 11:00:00 20,4 11,8 22,7 21,4 18,6 19,3 3 2 8 4 E 1026,3 24 60 0,0
23.08.2019 10:00:00 17,7 11,0 18,9 18,0 18,6 19,3 2 1 5 3 NNW 1026,7 22 60 0,0
23.08.2019 09:00:00 15,1 10,3 14,9 15,3 18,8 19,3 3 2 5 3 SSE 1026,9 23 60 0,0
23.08.2019 08:00:00 12,1 9,2 11,0 13,6 19,1 19,4 3 2 5 3 S 1027,0 24 54 0,0
23.08.2019 07:00:00 10,1 8,8 7,9 13,4 19,5 19,4 4 2 6 4 SSW 1026,9 22 0 0,0
23.08.2019 06:00:00 10,4 8,9 8,2 14,0 20,0 19,4 5 3 6 4 SSW 1026,6 30 0 0,0
23.08.2019 05:00:00 10,9 9,3 8,7 14,6 20,5 19,4 5 3 6 3 SSW 1026,3 27 0 0,0
23.08.2019 04:00:00 11,3 9,6 8,6 15,3 21,0 19,4 6 3 7 4 SSW 1026,2 32 0 0,0
23.08.2019 03:00:00 11,6 10,2 9,0 16,2 21,5 19,4 5 3 8 5 SSW 1026,0 27 0 0,0
23.08.2019 02:00:00 13,2 10,0 11,2 17,1 22,0 19,4 6 3 11 6 SSW 1026,0 38 0 0,0
23.08.2019 01:00:00 13,9 10,5 9,6 18,2 22,6 19,4 4 2 7 4 SSW 1026,1 37 0 0,0
23.08.2019 00:00:00 14,4 11,4 10,6 19,5 23,1 19,4 0 0 8 5 N 1025,7 38 0 0,0
22.08.2019 23:00:00 16,4 11,9 11,3 21,0 23,7 19,4 2 1 6 3 SW 1025,3 43 0 0,0
22.08.2019 22:00:00 17,8 12,3 13,1 23,0 24,1 19,4 3 1 4 2 SW 1025,2 40 0 0,0
22.08.2019 21:00:00 21,1 12,0 15,2 25,8 24,3 19,4 3 2 6 4 N 1024,3 8 21 0,0
22.08.2019 20:00:00 25,4 8,4 22,5 29,1 24,2 19,4 4 2 9 5 ESE 1023,7 55 60 0,0
22.08.2019 19:00:00 26,1 7,7 28,6 31,5 23,8 19,4 6 4 14 8 E 1023,6 45 60 0,0
22.08.2019 18:00:00 26,4 8,0 30,7 33,1 23,2 19,4 5 3 15 8 E 1023,8 52 60 0,0
22.08.2019 17:00:00 26,2 8,5 31,2 33,7 22,3 19,4 8 5 24 13 ESE 1024,1 64 60 0,0
22.08.2019 16:00:00 26,1 9,3 30,7 33,9 21,3 19,4 11 6 21 11 NE 1024,4 53 60 0,0
22.08.2019 15:00:00 25,6 9,0 31,2 32,9 20,3 19,4 8 4 19 11 E 1024,8 43 60 0,0
22.08.2019 14:00:00 24,4 8,4 30,0 30,7 19,2 19,4 10 5 19 11 E 1025,2 49 60 0,0
22.08.2019 13:00:00 23,2 11,2 28,5 27,7 18,4 19,4 9 5 16 8 E 1025,8 47 60 0,0
22.08.2019 12:00:00 21,7 10,7 26,6 23,8 17,8 19,4 4 2 11 6 E 1026,4 62 60 0,0
22.08.2019 11:00:00 18,4 9,4 21,1 20,2 17,5 19,4 4 2 8 5 NNE 1027,1 31 60 0,0
22.08.2019 10:00:00 16,1 9,0 18,3 16,8 17,4 19,4 3 2 6 3 NE 1027,2 33 60 0,0
22.08.2019 09:00:00 14,1 9,2 13,4 14,0 17,6 19,4 3 2 9 5 ESE 1027,6 28 60 0,0
22.08.2019 08:00:00 11,1 8,2 9,7 12,1 18,0 19,5 4 2 6 4 S 1027,6 24 56 0,0
22.08.2019 07:00:00 8,7 7,7 5,6 11,9 18,4 19,5 4 2 5 3 SSW 1027,3 25 0 0,0
22.08.2019 06:00:00 9,1 8,0 5,4 12,6 18,8 19,5 4 2 7 4 SSW 1027,0 28 0 0,0
22.08.2019 05:00:00 9,3 8,2 6,3 13,2 19,3 19,5 5 3 6 3 SSW 1027,1 30 0 0,0
22.08.2019 04:00:00 10,0 8,6 6,2 14,1 19,7 19,5 2 1 7 4 SSW 1026,6 34 0 0,0
22.08.2019 03:00:00 11,0 8,9 7,9 14,9 20,2 19,5 4 2 6 3 SSW 1026,9 39 0 0,0
22.08.2019 02:00:00 12,0 9,3 9,7 15,7 20,7 19,5 6 3 8 5 SSW 1027,0 37 0 0,0
22.08.2019 01:00:00 12,8 9,6 10,4 16,6 21,2 19,5 6 3 8 4 SSW 1026,8 42 0 0,0
22.08.2019 00:00:00 13,1 10,5 9,3 17,8 21,7 19,5 4 2 9 5 SSW 1026,8 43 0 0,0
21.08.2019 23:00:00 14,9 11,1 10,7 19,2 22,2 19,5 3 1 5 3 WNW 1026,8 42 0 0,0
21.08.2019 22:00:00 17,5 9,8 11,8 20,9 22,5 19,5 3 1 6 3 SSE 1026,5 48 0 0,0
21.08.2019 21:00:00 19,7 8,7 15,1 23,3 22,7 19,5 4 2 13 7 ENE 1026,1 24 5 0,0
21.08.2019 20:00:00 22,0 7,3 20,8 26,0 22,7 19,5 10 5 16 9 E 1025,8 47 51 0,0
21.08.2019 19:00:00 23,6 7,0 26,4 28,5 22,4 19,5 4 2 11 6 E 1025,9 52 58 0,0
21.08.2019 18:00:00 23,4 6,0 26,9 30,0 21,9 19,5 8 4 15 8 E 1026,0 59 60 0,0
21.08.2019 17:00:00 23,6 5,9 28,6 31,2 21,2 19,5 9 5 16 8 E 1026,3 43 60 0,0
21.08.2019 16:00:00 23,4 7,1 29,1 31,4 20,3 19,5 9 5 19 10 ESE 1026,6 43 60 0,0
21.08.2019 15:00:00 23,1 7,9 28,7 30,3 19,3 19,5 8 4 18 10 ESE 1027,0 42 60 0,0
21.08.2019 14:00:00 22,9 8,1 27,3 28,1 18,4 19,5 7 4 19 10 NE 1027,5 56 60 0,0
21.08.2019 13:00:00 21,3 8,2 25,6 25,8 17,6 19,5 9 5 15 8 NW 1028,1 44 60 0,0
21.08.2019 12:00:00 20,3 10,2 24,2 23,0 17,0 19,6 4 2 8 5 NNE 1028,6 41 60 0,0
21.08.2019 11:00:00 18,3 10,7 20,2 19,7 16,7 19,6 3 1 6 3 SSE 1029,0 34 60 0,0
21.08.2019 10:00:00 16,0 11,1 16,1 16,3 16,6 19,6 0 0 6 3 N 1029,2 25 60 0,0
21.08.2019 09:00:00 14,1 10,2 12,8 13,4 16,7 19,6 0 0 4 2 N 1029,6 26 57 0,0
21.08.2019 08:00:00 10,6 9,2 9,4 11,7 17,0 19,6 0 0 6 4 N 1029,4 23 28 0,0
21.08.2019 07:00:00 9,0 8,3 7,2 11,5 17,4 19,6 5 3 6 4 S 1029,3 25 0 0,0
21.08.2019 06:00:00 9,0 8,7 5,5 12,1 17,7 19,6 3 1 5 3 SW 1028,8 23 0 0,0
21.08.2019 05:00:00 9,9 9,2 6,7 12,8 18,1 19,6 2 1 7 4 SSW 1028,4 26 0 0,0
21.08.2019 04:00:00 10,2 9,4 6,9 13,4 18,4 19,6 3 2 7 4 S 1028,0 24 0 0,0
21.08.2019 03:00:00 11,8 10,4 9,5 14,2 18,8 19,6 3 1 5 3 WSW 1027,6 42 0 0,0
21.08.2019 02:00:00 12,5 10,9 10,8 14,9 19,1 19,6 4 2 9 5 W 1027,3 40 0 0,0
21.08.2019 01:00:00 13,7 11,3 10,0 15,9 19,4 19,6 5 3 9 5 SSW 1026,9 41 0 0,0
21.08.2019 00:00:00 15,3 11,3 11,8 16,7 19,7 19,6 2 1 7 4 W 1026,4 49 0 0,0
20.08.2019 23:00:00 16,7 11,1 13,3 17,7 20,0 19,6 5 3 9 5 WNW 1026,0 45 0 0,0
20.08.2019 22:00:00 17,1 12,2 15,0 18,8 20,2 19,6 4 2 8 4 SSW 1025,5 56 0 0,0
20.08.2019 21:00:00 18,4 12,3 15,2 20,2 20,3 19,6 4 2 7 4 SSW 1024,9 55 2 0,0
20.08.2019 20:00:00 19,9 10,9 17,9 21,3 20,3 19,6 3 1 8 4 S 1024,3 58 8 0,0
20.08.2019 19:00:00 20,9 9,4 21,3 22,1 20,2 19,6 4 2 12 6 N 1023,9 64 2 0,0
20.08.2019 18:00:00 21,0 8,9 21,8 23,0 19,9 19,6 4 2 12 7 N 1023,6 49 0 0,0
20.08.2019 17:00:00 21,0 9,3 22,0 24,0 19,6 19,6 6 4 17 9 NE 1023,5 48 18 0,0
20.08.2019 16:00:00 21,0 9,7 23,2 24,1 19,1 19,6 6 3 13 7 NE 1023,0 47 10 0,0
20.08.2019 15:00:00 20,7 9,4 24,2 24,3 18,5 19,6 5 3 16 9 S 1023,0 32 49 0,0
20.08.2019 14:00:00 20,1 10,9 23,2 22,4 18,0 19,7 7 4 15 8 ESE 1023,2 43 5 0,0
20.08.2019 13:00:00 18,8 10,0 21,7 21,0 17,6 19,7 9 5 14 7 E 1023,5 52 0 0,0
20.08.2019 12:00:00 18,2 9,5 20,8 19,8 17,2 19,7 3 2 7 4 SE 1023,5 56 0 0,0
20.08.2019 11:00:00 17,0 9,4 18,6 18,5 16,9 19,7 2 1 9 5 N 1023,3 43 23 0,0
20.08.2019 10:00:00 15,7 10,7 16,9 16,4 16,8 19,7 4 2 8 4 ESE 1023,3 52 55 0,0
20.08.2019 09:00:00 14,1 10,3 13,1 13,7 17,0 19,7 4 2 8 5 S 1023,5 39 56 0,0
20.08.2019 08:00:00 11,6 9,2 10,7 12,0 17,2 19,7 4 2 6 3 S 1023,1 30 51 0,0
20.08.2019 07:00:00 9,2 8,7 6,1 11,4 17,6 19,7 2 1 5 3 SSW 1022,9 34 0 0,0
20.08.2019 06:00:00 9,5 8,9 5,7 12,0 18,0 19,7 2 1 8 4 SW 1022,2 35 0 0,0
20.08.2019 05:00:00 9,5 8,9 6,6 12,6 18,3 19,7 4 2 5 3 SSW 1022,0 32 0 0,0
20.08.2019 04:00:00 10,5 9,6 7,2 13,2 18,7 19,7 2 1 6 3 SW 1021,9 40 0 0,0
20.08.2019 03:00:00 11,1 10,1 7,6 13,8 19,1 19,7 3 2 5 3 SSW 1021,5 43 0 0,0
20.08.2019 02:00:00 12,2 10,4 8,3 14,6 19,5 19,7 4 2 8 4 NW 1021,3 44 0 0,0
20.08.2019 01:00:00 13,9 10,1 8,9 15,4 19,9 19,7 4 2 10 5 SSW 1020,8 47 0 0,0
20.08.2019 00:00:00 14,9 10,5 10,4 16,3 20,3 19,7 4 2 8 5 SW 1020,4 50 0 0,0
19.08.2019 23:00:00 15,3 11,2 12,1 17,3 20,6 19,7 3 2 7 4 ENE 1019,9 51 0 0,0
19.08.2019 22:00:00 16,5 10,7 12,7 18,4 20,9 19,7 3 1 12 7 SSW 1019,1 47 0 0,0
19.08.2019 21:00:00 20,1 9,4 16,9 19,9 21,1 19,7 6 3 15 8 WSW 1018,4 56 18 0,0
19.08.2019 20:00:00 22,2 8,2 20,8 21,7 21,1 19,7 11 6 21 11 W 1018,0 53 44 0,0
19.08.2019 19:00:00 22,6 8,5 21,3 22,6 21,1 19,7 11 6 25 13 W 1017,8 51 26 0,0
19.08.2019 18:00:00 23,7 8,5 25,0 23,2 20,9 19,7 13 7 25 13 SW 1017,4 55 15 0,0
19.08.2019 17:00:00 23,2 8,1 24,1 23,9 20,6 19,7 10 6 29 16 W 1017,2 52 19 0,0
19.08.2019 16:00:00 23,0 8,0 23,5 23,7 20,4 19,7 15 8 26 14 SW 1017,2 56 18 0,0
19.08.2019 15:00:00 22,7 7,9 23,1 23,5 20,1 19,7 17 9 32 18 WSW 1017,3 54 22 0,0
19.08.2019 14:00:00 22,4 8,0 22,9 23,0 19,7 19,7 20 11 35 19 WSW 1017,1 47 24 0,0
19.08.2019 13:00:00 21,4 9,1 21,5 23,2 19,3 19,7 11 6 31 17 WSW 1016,9 48 32 0,0
19.08.2019 12:00:00 21,6 9,2 24,3 23,1 18,8 19,7 15 8 27 14 W 1016,8 38 60 0,0
19.08.2019 11:00:00 20,2 9,3 21,9 21,0 18,5 19,7 14 8 24 13 WSW 1016,5 60 60 0,0
19.08.2019 10:00:00 19,1 12,2 19,9 18,7 18,4 19,7 8 5 16 9 SW 1016,3 62 60 0,0
19.08.2019 09:00:00 17,0 13,4 16,6 16,2 18,6 19,7 5 3 10 5 ESE 1016,3 47 33 0,0
19.08.2019 08:00:00 15,0 12,9 13,4 15,6 18,7 19,7 2 1 5 3 SE 1016,2 45 18 0,0

tt = temperature
td = dewpoint
tt 5cm = temperature 5cm
tt -5cm = temperature -5cm
tt -20cm = temperature -20cm
tt -100cm = temperature -100cm
ff = wind speed
fx = gusts
dd = wind direction
ppp = reduced air pressure
vv = visibility
sd = sunshine duration
rr = precipitation

Next stations